User: anonymous
Location: Unspecified
(0.0000°N, 0.0000°E)
Time: 04:36:35
(UTC+00:00)
Language:

Tiros 1 despin weight - Orbit

View from above orbital plane
View from above orbital plane
View from above satellite
View from above satellite

Ground track
Ground track

The orbit data is extracted from the following two-line orbital elements,

1 00115U 60002D   14245.74952829  .00000826  00000-0  13315-3 0  4455
2 00115 048.1674 351.9487 0037053 297.2797 191.1536 14.80714504899137
Epoch (UTC): 02 September 2014 17:59:19
Eccentricity: 0.0037053
inclination: 48.1674°
perigee height: 601 km
apogee height: 653 km
right ascension of ascending node: 351.9487°
argument of perigee: 297.2797°
revolutions per day: 14.80714504
mean anomaly at epoch: 191.1536°
orbit number at epoch: 89913

The dashed part of the orbit path shows where the satellite is in the earth's shadow,  

DLR